Location: Newark
(7.0858°N, 171.3717°E)
Time: 06:04:38
(UTC+00:00)

Courier 1B Rocket - Pass Details

Date: 03 December 2020
Orbit: 920 x 1202 km, 28.2° (Epoch: 20 January)

Event Time Altitude Azimuth Distance (km) Brightness Sun altitude
Rises 00:31:55 0° 289° (WNW) 3,939 8.1 60.7°
Reaches altitude 10° 00:34:53 10° 283° (WNW) 2,938 7.6 60.7°
Maximum altitude 00:41:43 47° 211° (SSW) 1,345 7.5 60.5°
Drops below altitude 10° 00:48:05 10° 139° (SE) 2,740 7.8 60.2°
Sets 00:50:46 0° 133° (SE) 3,652 8.2 60.1°
